Wind_Speed
32 32 42 45 48 48 49 55 62 65 71 74 78 82 81 84 89 90 91 87 84 86 89 92 91 87 85 81 80 76 73 70 69 66 61 61 60 62 59 60 55 52 48
38 39 37 36 38 43 47 50 53 56 61 67 71 72 74 76 77 79 82 85 87 88 83 84 89 90 87 86 84 84 83 84 79 76 74 70 70 67 66 65 64 61 58
42 45 46 48 47 40 40 43 45 49 54 59 61 64 66 66 67 69 71 74 76 78 81 83 85 86 86 90 89 89 89 87 85 84 82 79 76 75 73 67 63 62 63
44 46 48 51 54 59 45 38 40 42 46 49 52 53 54 57 60 64 69 72 74 77 78 79 80 83 87 90 88 90 91 90 88 87 87 85 82 78 79 79 74 70 68
44 46 50 54 57 57 63 47 41 41 44 46 48 51 52 53 56 58 62 61 61 63 70 76 80 80 81 83 89 93 94 96 96 93 93 92 88 86 82 82 83 80 75
46 49 53 56 57 61 60 68 56 52 46 46 46 46 45 48 47 47 49 51 51 51 53 58 65 72 79 83 84 85 89 96 100 100 101 99 96 94 91 88 88 88 83
46 52 56 58 62 62 64 63 67 64 59 51 49 48 48 48 46 42 42 44 46 45 45 48 53 58 63 70 77 82 87 90 95 103 106 105 105 102 99 95 93 94 93
52 52 58 63 62 64 64 65 64 68 66 60 52 50 50 48 46 44 44 42 40 41 43 46 48 51 56 60 67 75 81 85 91 95 99 108 107 110 109 104 103 101 100
55 58 60 64 66 67 67 68 67 68 69 69 60 53 51 49 47 45 46 45 45 46 46 44 45 50 53 55 59 60 67 77 86 92 96 100 108 113 112 114 113 109 109
56 60 62 64 68 69 69 69 73 69 71 70 71 60 52 50 49 47 46 47 47 47 48 51 53 54 55 55 57 60 63 64 67 78 88 95 99 106 113 119 118 121 116
58 62 65 67 71 71 72 72 74 77 72 75 75 73 60 53 50 49 49 49 49 50 51 52 54 57 59 61 64 66 63 63 64 68 73 82 91 99 103 109 119 123 124
63 63 68 69 72 75 78 77 77 79 81 81 81 75 65 55 52 52 53 52 50 51 52 55 56 59 60 64 66 70 72 70 68 67 69 75 78 84 93 101 106 116 126
66 67 70 73 73 78 80 82 84 85 84 84 85 81 70 60 55 54 54 54 54 54 53 53 55 56 60 62 67 72 72 75 77 80 78 75 74 78 82 86 93 103 114
70 71 73 75 78 81 83 87 87 90 91 91 90 84 68 62 58 58 59 58 57 55 56 57 57 58 60 59 61 67 74 73 80 86 89 89 82 79 80 82 85 91 99
73 72 73 77 80 83 86 87 89 91 95 96 91 89 71 65 61 60 59 59 60 60 60 60 59 60 62 63 65 66 70 67 70 73 81 92 94 91 86 87 85 84 90
76 76 75 79 82 86 90 90 94 97 99 99 98 88 76 72 67 64 65 65 64 65 65 66 66 63 62 63 65 66 65 67 70 79 83 78 89 93 94 94 94 88 86
80 80 80 84 86 88 92 94 97 102 104 102 103 89 79 74 70 68 68 69 70 71 69 69 70 70 70 71 72 72 71 73 74 74 77 82 86 96 94 102 98 100 94
84 86 87 89 91 93 94 99 102 106 110 105 100 87 82 78 75 73 74 76 76 76 76 76 75 73 73 77 77 80 80 78 81 81 84 83 90 93 97 101 103 105 106
90 90 93 94 96 98 100 106 109 112 114 110 97 90 86 83 81 80 81 83 82 84 83 82 81 82 81 84 85 88 86 82 86 88 88 86 90 93 99 98 105 109 109
93 95 97 98 100 100 106 111 114 118 116 106 97 95 91 88 87 86 88 91 91 88 87 87 89 90 89 92 93 96 95 90 92 94 93 92 89 92 97 99 102 102 99
95 98 100 101 103 107 114 117 119 122 119 105 100 96 95 94 95 96 98 97 95 93 92 91 92 94 96 95 98 99 101 98 97 95 92 89 85 83 86 88 93 94 92
98 99 103 105 109 116 120 122 126 125 111 106 104 102 101 100 103 106 104 103 101 100 100 101 101 103 104 103 101 102 101 99 95 89 85 82 74 72 73 77 80 84 84
101 103 106 110 118 122 125 127 129 118 112 110 108 108 109 112 112 109 106 105 105 106 106 107 107 105 104 101 97 93 89 87 85 80 76 73 69 68 69 71 71 70 73
104 106 112 117 120 128 127 132 124 116 113 110 109 111 114 110 108 106 107 107 109 111 110 104 97 93 90 86 82 79 76 74 74 71 67 65 64 65 64 65 65 65 65
106 111 118 120 128 129 134 130 122 117 112 111 113 116 111 107 105 106 108 110 111 108 97 88 82 78 77 74 70 68 66 66 64 62 59 59 58 61 60 60 62 62 60
112 119 120 126 131 133 132 128 121 116 114 115 117 112 108 109 109 110 106 109 102 95 88 78 71 68 66 65 63 60 58 57 56 54 53 53 53 54 55 55 58 56 55
Wind_Direction
358 324 296 289 286 286 287 284 279 278 278 278 275 276 277 277 276 275 272 266 266 266 265 263 263 264 262 259 259 260 259 258 261 260 253 253 255 254 254 254 252 250 250
4 4 355 339 316 299 294 291 288 285 283 281 280 281 280 279 278 278 276 275 272 267 263 259 259 257 259 259 256 257 256 257 256 256 256 254 253 253 252 254 254 252 252
12 8 5 1 358 342 312 298 292 290 288 288 287 286 285 285 284 281 278 276 273 269 265 261 257 255 254 254 255 255 256 253 253 254 252 252 252 252 252 253 249 251 251
6 2 4 3 4 5 347 322 303 296 295 292 289 289 287 285 282 282 282 276 271 269 268 266 263 260 256 253 252 251 250 251 251 248 249 249 249 247 250 250 248 249 251
356 357 357 358 359 2 3 347 334 312 302 298 295 292 292 292 291 288 285 281 276 270 266 265 264 264 262 257 253 251 250 250 249 248 246 247 247 247 246 249 248 247 248
353 352 353 355 354 357 355 1 351 344 326 310 304 300 295 294 294 296 293 288 284 280 274 270 266 263 263 261 259 255 251 248 247 247 246 246 244 245 245 244 246 248 245
350 348 349 352 352 353 352 351 355 351 344 329 316 310 307 302 301 303 303 298 290 285 282 276 271 267 264 263 261 259 256 252 249 247 246 245 243 242 242 240 241 243 245
345 346 346 349 348 349 349 348 347 351 348 342 324 313 310 306 307 306 307 303 295 290 286 281 278 272 267 263 261 258 257 256 254 249 246 244 244 242 240 238 237 237 241
341 343 341 344 346 345 345 346 346 345 347 345 337 319 311 307 306 306 305 303 302 302 297 291 288 282 274 270 267 264 260 257 255 253 251 246 243 242 242 239 236 236 236
338 338 338 339 341 342 341 342 343 342 343 342 340 330 313 306 305 302 299 296 296 294 292 292 290 288 286 284 275 267 264 265 263 258 255 253 251 246 243 241 239 237 235
336 335 334 335 337 336 337 338 340 340 340 339 340 334 322 311 304 302 299 295 292 290 288 284 284 282 283 283 281 281 276 269 263 260 259 256 252 251 248 245 241 239 237
335 334 331 331 332 333 333 335 336 336 337 336 336 333 326 314 307 301 300 298 294 290 285 284 283 279 277 275 276 276 280 278 275 269 262 259 260 258 254 249 245 242 238
332 332 329 328 330 330 330 331 332 335 333 333 333 329 325 316 309 305 302 298 295 292 289 286 282 279 279 275 273 269 274 274 274 276 274 270 264 261 259 256 253 248 242
328 329 328 327 327 327 326 327 329 331 332 331 331 328 320 316 309 308 304 301 298 294 290 288 286 282 277 277 273 268 268 273 268 270 271 272 271 269 266 261 255 252 249
324 325 326 325 325 324 325 324 326 327 330 329 328 326 321 317 310 308 308 306 303 299 296 293 289 287 285 281 279 273 265 269 264 266 266 265 268 268 267 265 263 259 252
322 323 325 323 322 322 321 321 324 326 326 327 326 322 320 316 312 309 310 307 307 305 299 296 293 292 289 287 285 281 278 279 274 268 264 266 265 264 263 264 266 264 261
321 322 323 322 323 320 319 319 323 324 325 325 325 322 319 315 313 310 309 309 308 307 304 300 297 292 290 288 287 283 278 275 272 269 266 261 262 261 259 259 260 267 266
320 322 321 323 321 319 318 320 323 322 323 324 322 322 319 317 315 313 311 310 310 309 306 304 301 297 295 293 290 287 284 280 275 270 265 264 260 259 258 260 261 261 264
319 321 321 322 321 319 320 320 321 322 323 323 322 320 318 316 315 315 313 313 312 310 308 305 304 300 297 295 293 289 285 283 282 277 270 265 263 260 259 259 260 261 263
319 320 321 320 319 316 317 319 319 320 323 322 321 320 318 316 315 314 314 313 311 308 306 304 302 299 298 296 293 290 286 283 280 277 276 273 268 264 262 260 261 261 263
317 318 319 318 316 316 317 318 319 319 322 321 319 318 317 317 316 316 315 313 310 306 303 301 299 296 293 290 288 287 285 285 283 281 280 277 274 270 267 264 262 262 262
317 318 318 316 315 317 318 318 317 319 320 319 319 318 318 318 317 316 314 312 309 306 303 300 297 295 293 290 288 287 287 286 285 283 282 278 276 273 268 264 259 260 260
316 317 315 315 317 317 317 317 319 320 319 319 318 318 319 318 316 315 312 310 306 302 299 296 294 293 292 291 290 288 286 284 283 282 280 278 276 272 266 263 262 258 256
315 315 315 316 316 315 316 319 320 318 317 318 318 318 318 316 314 312 309 305 301 298 297 297 297 296 293 291 289 287 285 282 280 279 278 276 273 268 264 263 261 258 255
314 314 314 315 314 315 316 319 317 316 317 319 319 318 316 314 311 308 305 302 302 301 300 300 299 297 294 291 288 285 283 281 280 278 276 272 269 267 265 263 261 259 257
312 313 314 313 314 315 317 316 316 317 319 320 319 316 314 312 310 307 306 305 304 302 302 303 301 297 293 291 288 286 284 282 280 278 274 271 267 265 263 262 260 258 254
Height
10762 10756 10752 10746 10743 10738 10731 10726 10725 10720 10715 10710 10707 10704 10699 10697 10696 10697 10699 10700 10702 10703 10706 10709 10712 10716 10720 10723 10727 10729 10732 10736 10740 10744 10745 10744 10746 10748 10751 10753 10755 10758 10761
10759 10752 10745 10738 10731 10724 10718 10714 10709 10703 10698 10693 10688 10685 10681 10678 10676 10674 10672 10672 10673 10677 10680 10683 10687 10689 10693 10697 10701 10705 10709 10713 10718 10722 10725 10727 10729 10734 10735 10739 10742 10745 10749
10755 10749 10741 10734 10726 10718 10709 10702 10696 10690 10685 10679 10674 10668 10663 10659 10656 10653 10651 10648 10646 10647 10649 10654 10660 10663 10667 10671 10675 10679 10684 10690 10696 10698 10703 10709 10711 10714 10718 10722 10726 10730 10734
10749 10743 10737 10730 10721 10712 10702 10693 10685 10678 10672 10666 10661 10656 10651 10645 10640 10634 10628 10625 10623 10623 10623 10624 10628 10633 10638 10643 10647 10653 10658 10662 10670 10676 10677 10684 10691 10696 10697 10703 10708 10711 10715
10744 10737 10730 10722 10713 10704 10696 10686 10677 10669 10661 10653 10647 10642 10637 10630 10624 10617 10610 10604 10602 10602 10602 10603 10604 10606 10611 10616 10622 10628 10632 10636 10641 10649 10657 10661 10668 10675 10679 10682 10688 10694 10697
10739 10731 10722 10714 10705 10696 10686 10678 10667 10658 10649 10642 10634 10628 10623 10618 10611 10603 10595 10590 10585 10583 10582 10582 10582 10584 10585 10587 10592 10597 10603 10607 10610 10616 10624 10633 10641 10649 10658 10663 10664 10669 10676
10731 10724 10715 10705 10696 10687 10678 10669 10660 10650 10641 10631 10623 10615 10608 10601 10596 10590 10583 10577 10572 10568 10565 10564 10564 10564 10564 10565 10566 10568 10573 10577 10581 10586 10592 10600 10609 10619 10629 10637 10641 10645 10648
10722 10714 10706 10697 10688 10680 10670 10660 10651 10642 10632 10623 10614 10605 10597 10590 10582 10575 10570 10565 10560 10556 10552 10549 10547 10546 10545 10544 10543 10544 10545 10547 10550 10555 10560 10568 10575 10583 10593 10606 10615 10621 10625
10712 10705 10697 10689 10680 10670 10662 10653 10643 10634 10625 10616 10606 10597 10587 10579 10572 10564 10558 10553 10547 10542 10537 10533 10530 10528 10527 10526 10523 10521 10520 10520 10522 10525 10529 10534 10540 10548 10556 10568 10580 10589 10597
10703 10695 10687 10679 10671 10661 10652 10643 10634 10625 10617 10607 10598 10588 10579 10570 10561 10553 10547 10541 10535 10530 10525 10519 10515 10511 10508 10505 10503 10502 10501 10500 10499 10500 10502 10506 10510 10515 10522 10530 10541 10553 10563
10693 10685 10677 10669 10660 10652 10643 10633 10625 10614 10604 10596 10585 10574 10563 10556 10549 10541 10534 10528 10522 10517 10511 10506 10501 10497 10492 10488 10483 10480 10479 10478 10478 10476 10475 10475 10478 10482 10488 10495 10505 10517 10527
10684 10676 10667 10658 10649 10640 10631 10622 10612 10602 10592 10582 10571 10562 10551 10541 10534 10527 10520 10514 10509 10502 10496 10489 10483 10480 10476 10473 10467 10462 10458 10456 10454 10453 10454 10453 10453 10453 10456 10461 10467 10477 10490
10673 10664 10656 10646 10637 10627 10617 10607 10598 10588 10577 10566 10556 10543 10533 10524 10517 10511 10504 10497 10491 10485 10478 10473 10467 10462 10456 10452 10448 10444 10439 10436 10431 10429 10427 10428 10429 10429 10429 10432 10435 10440 10448
10662 10652 10643 10633 10624 10614 10603 10593 10582 10572 10562 10551 10540 10530 10519 10509 10500 10492 10484 10477 10471 10466 10460 10454 10448 10442 10437 10432 10426 10421 10419 10413 10409 10403 10401 10399 10400 10401 10400 10401 10402 10406 10411
10652 10643 10632 10622 10612 10601 10591 10581 10570 10559 10547 10535 10522 10511 10500 10491 10483 10474 10466 10458 10451 10444 10437 10432 10426 10421 10415 10409 10401 10397 10395 10387 10384 10380 10375 10374 10373 10371 10371 10372 10370 10373 10379
10640 10630 10619 10609 10598 10587 10576 10564 10553 10542 10530 10518 10506 10494 10483 10472 10463 10454 10446 10438 10430 10422 10415 10408 10402 10397 10391 10385 10378 10372 10370 10363 10360 10356 10350 10347 10343 10343 10343 10342 10341 10342 10345
10625 10615 10604 10594 10584 10573 10562 10550 10538 10525 10511 10498 10484 10472 10462 10452 10443 10434 10426 10417 10409 10401 10393 10385 10379 10373 10366 10357 10349 10342 10341 10335 10329 10324 10319 10316 10314 10313 10312 10311 10311 10311 10311
10609 10598 10587 10577 10565 10554 10542 10531 10519 10505 10491 10475 10461 10449 10440 10430 10421 10411 10402 10393 10385 10375 10366 10358 10349 10343 10336 10326 10318 10308 10304 10303 10295 10291 10286 10283 10278 10277 10277 10276 10278 10279 10278
10591 10578 10567 10556 10544 10532 10519 10507 10495 10480 10466 10452 10438 10426 10416 10407 10397 10387 10376 10364 10355 10345 10335 10325 10317 10308 10304 10292 10284 10272 10269 10269 10260 10253 10251 10251 10245 10241 10242 10243 10243 10246 10246
10572 10559 10547 10536 10525 10514 10502 10488 10474 10459 10443 10427 10413 10401 10390 10379 10369 10358 10346 10334 10323 10314 10304 10295 10283 10274 10268 10258 10248 10236 10228 10231 10225 10217 10213 10211 10212 10208 10206 10209 10206 10207 10209
10554 10541 10529 10516 10505 10492 10478 10462 10446 10431 10416 10401 10389 10376 10362 10349 10337 10327 10315 10304 10295 10284 10273 10264 10253 10242 10229 10224 10212 10203 10191 10186 10183 10179 10176 10172 10172 10175 10171 10172 10173 10171 10176
10537 10523 10508 10493 10479 10466 10450 10437 10421 10406 10390 10375 10361 10348 10334 10320 10306 10294 10280 10266 10254 10243 10232 10221 10213 10200 10187 10177 10170 10161 10151 10145 10141 10139 10137 10135 10135 10137 10135 10134 10138 10140 10145
10515 10501 10487 10470 10453 10438 10422 10409 10391 10373 10359 10344 10331 10318 10303 10289 10274 10261 10248 10233 10216 10202 10192 10179 10169 10162 10150 10137 10129 10124 10117 10110 10104 10104 10104 10103 10103 10101 10102 10101 10106 10112 10114
10492 10478 10462 10446 10431 10415 10396 10380 10364 10349 10335 10322 10307 10293 10278 10262 10244 10229 10211 10196 10179 10162 10149 10141 10131 10123 10113 10101 10095 10089 10084 10079 10075 10074 10076 10075 10074 10072 10073 10075 10078 10084 10087
10471 10456 10440 10424 10408 10391 10373 10356 10340 10326 10312 10296 10279 10263 10246 10229 10214 10197 10177 10157 10139 10118 10109 10104 10099 10090 10079 10069 10066 10061 10056 10052 10049 10048 10049 10049 10049 10047 10048 10051 10053 10058 10064
10449 10435 10416 10401 10384 10366 10346 10331 10314 10298 10281 10266 10247 10228 10210 10193 10175 10158 10148 10121 10098 10087 10072 10069 10067 10060 10051 10043 10038 10034 10032 10029 10026 10026 10025 10025 10026 10026 10028 10030 10032 10037 10042